Location: Coffee Ditch
(40.9640°N, 122.7500°W)
Time: 09:19:47
(UTC+00:00)

Cosmos 1602 Rocket - Pass Details

Date: 17 December 2025
Orbit: 596 x 626 km, 82.5° (Epoch: 14 January)

Event Time Altitude Azimuth Distance (km) Brightness Sun altitude
Rises 14:38:25 0° 223° (SW) 2,900 6.8 -9.6°
Reaches altitude 10° 14:41:11 10° 241° (WSW) 1,997 5.8 -9.1°
Maximum altitude 14:44:23 19° 288° (WNW) 1,479 4.9 -8.5°
Drops below altitude 10° 14:47:37 10° 334° (NNW) 2,002 5.7 -8.0°
Sets 14:50:24 0° 352° (N) 2,910 6.7 -7.5°
